カタログに戻る

COSMOS 1275 DEB

運用中PO
NORAD 17627·DEBRIS·🇷🇺 Russia

打ち上げ Jun 4, 1981 から Plesetsk Cosmodrome

Loading…

次のパス (今後24時間)

TLE

最新Source: Space-Track

元期: Sep 14, 2026, 12:48 UTC

1 17627U 81053KW  26257.53380614  .00001000  00000-0  65061-3 0  9994
2 17627  82.9208 285.9364 0048246 164.1951 196.0739 14.01030389 98137

AllMySatでCOSMOS 1275 DEBをリアルタイム追跡

Download on the App Store